Regional Weather Roundup
Issued by NWS

Home | Current Version | Previous Version | Text Only | Print | Product List | Glossary On
Versions: 1 2 3 4 5 6 7 8 9 10 11 12 13 14 15 16 17 18 19 20 21 22 23 24 25 26 27 28 29 30 31 32 33 34 35 36 37 38 39 40 41 42 43 44 45 46 47 48 49 50
000
ASUS45 KABQ 040410
RWRNM
NEW MEXICO REGIONAL WEATHER ROUNDUP
NATIONAL WEATHER SERVICE ALBUQUERQUE NM
900 PM MST SAT DEC 03 2016

NOTE: "FAIR" MEANS FEW OR NO CLOUDS BELOW 12,000 FEET AGL WITH NO
       SIGNIFICANT WEATHER OR OBSTRUCTIONS TO VISION.

      THIS PRODUCT IS RELEASED AS TWO VERSIONS.  ONE VERSION NEAR
      THE TOP OF THE HOUR CONTAINING PRELIMINARY DATA FROM ALBUQUERQUE
      AND OTHER STATIONS.  A FINAL VERSION WITH ADDITIONAL DATA IS
      ISSUED ABOUT 10 MINUTES AFTER THE HOUR.

NMZ501-503-504-510>518-040500-
NORTHWEST PLATEAU/NORTHCENTRAL MOUNTAINS

CITY           SKY/WX    TMP DP  RH WIND       PRES   REMARKS
FARMINGTON     FAIR      31  13  47 W10       30.08R WCI  22
LOS ALAMOS     FAIR      31  17  55 N13G18    30.03R WCI  21
SANTA FE       FAIR      31  19  61 N15       30.02R WCI  20
TAOS           FAIR      19  10  68 NE3       30.06R
ANGEL FIRE     FAIR      16  12  86 CALM      30.05R

$$
NMZ402-403-502-505>509-040500-
WESTCENTRAL MOUNTAINS/SOUTHWEST MOUNTAINS

CITY           SKY/WX    TMP DP  RH WIND       PRES   REMARKS
GALLUP         FAIR      23  20  88 S3        30.10S
GRANTS         FAIR      24  21  90 N7        30.12R WCI  15
SILVER CITY    FAIR      37  35  92 W3        30.02R

$$
NMZ407-409-411-412-040500-
SOUTHERN DESERTS

CITY           SKY/WX    TMP DP  RH WIND       PRES   REMARKS
DEMING         CLOUDY    43  39  86 S3        30.02R
LAS CRUCES     CLOUDY    44  39  82 SW6       30.01S
HOLLOMAN AFB   CLOUDY    45  39  81 CALM      30.04R
T OR C         FAIR      40  30  67 NW8       30.01S WCI  34

$$
NMZ519>523-040500-
CENTRAL VALLEYS/CENTRAL HIGHLANDS

CITY           SKY/WX    TMP DP  RH WIND       PRES   REMARKS
ALBUQUERQUE    FAIR      38  25  59 N13       30.07R WCI  30
DOUBLE EAGLE   CLEAR     34  23  64 NW12      30.06R WCI  25
MORIARTY ARPT  FAIR      28  19  71 W7        30.04R WCI  20
CLINES CORNERS FAIR      28  21  75 NW20      29.99S WCI  15
BELEN          FAIR      34  26  71 N8        30.08R WCI  27
SOCORRO        FAIR      37  30  77 N9        30.05R WCI  30

$$
NMZ524>526-539-540-040500-
SOUTHCENTRAL MOUNTAINS

CITY           SKY/WX    TMP DP  RH WIND       PRES   REMARKS
RUIDOSO          N/A     32  28  86 NW3       30.01S

$$
NMZ527>531-040500-
NORTHEAST HIGHLANDS/NORTHEAST PLAINS

CITY           SKY/WX    TMP DP  RH WIND       PRES   REMARKS
LAS VEGAS      FAIR      25  22  88 N9        29.98R WCI  15
RATON          FAIR      24  17  74 NW5       30.02R WCI  18
CLAYTON        FAIR      30  28  92 NW10      29.98R WCI  21

$$
NMZ532>537-040500-
EASTCENTRAL PLAINS

CITY           SKY/WX    TMP DP  RH WIND       PRES   REMARKS
TUCUMCARI      FAIR      31  29  92 CALM      29.99R
CANNON AFB     FOG       34  34 100 SE5       29.97F VSB 3/4 WCI  30
CLOVIS AIRPORT FAIR      34  30  86 SE6       29.98F WCI  29

$$
NMZ028-029-538-040500-
SOUTHEAST PLAINS

CITY           SKY/WX    TMP DP  RH WIND       PRES   REMARKS
ROSWELL        MOCLDY    37  35  92 S6        29.99S WCI  32
ARTESIA        FAIR      36  36 100 W3        30.02R
CARLSBAD       CLOUDY    39  38  96 NW5       30.01R
HOBBS          CLOUDY    39  39 100 CALM      30.01R


$$




USA.gov is the U.S. government's official web portal to all federal, state and local government web resources and services.